Location: Killam
(52.7910°N, 111.8608°W)
Time: 17:46:47
(UTC+00:00)

deb Kosmos-2227 - Visible Passes

Search period start: 26 May 2024 00:00
Search period end: 05 June 2024 00:00
Orbit: 767 x 848 km, 70.9° (Epoch: 25 May)

Date Brightness Start Highest point End Pass type
(mag) Time Alt. Az. Time Alt. Az. Time Alt. Az.
26 May ? 04:55:46 10° ESE 04:57:18 11° E 04:58:49 10° E visible
26 May ? 06:36:03 22° S 06:39:33 62° ESE 06:44:49 10° NE visible
26 May ? 08:18:25 10° WSW 08:23:13 32° NW 08:27:59 10° NNE visible
26 May ? 10:05:48 10° NW 10:08:17 13° NNW 10:10:45 10° N visible
27 May ? 06:10:36 19° S 06:14:12 50° ESE 06:19:22 10° NE visible
27 May ? 07:52:43 10° WSW 07:57:42 37° NW 08:02:39 10° NNE visible
27 May ? 09:39:47 10° NW 09:42:37 14° NNW 09:45:25 10° NNE visible
28 May ? 05:45:04 16° S 05:48:54 41° ESE 05:53:51 10° NE visible
28 May ? 07:27:05 10° WSW 07:32:12 44° NW 07:37:17 10° NNE visible
28 May ? 09:13:47 10° WNW 09:16:56 16° NNW 09:20:05 10° NNE visible
29 May ? 05:19:24 13° SSE 05:23:36 33° ESE 05:28:19 10° NE visible
29 May ? 07:01:28 10° SW 07:06:44 52° NW 07:11:55 10° NNE visible
29 May ? 08:47:49 10° WNW 08:51:17 17° NNW 08:54:44 10° NNE visible
30 May ? 04:53:50 10° SSE 04:58:18 27° ESE 05:02:43 10° NE visible
30 May ? 06:35:56 10° SW 06:41:15 62° NW 06:46:32 10° NNE visible
30 May ? 08:21:52 10° WNW 08:25:38 19° NNW 08:29:24 10° NNE visible
30 May ? 10:09:54 10° NNW 10:11:13 11° N 10:12:32 10° N visible
31 May ? 04:29:00 10° SSE 04:33:02 22° ESE 04:37:01 10° NE visible
31 May ? 06:10:25 10° SW 06:15:48 75° WNW 06:21:08 10° NNE visible
31 May ? 07:55:57 10° W 08:00:00 21° NW 08:04:03 10° NNE visible
31 May ? 09:43:57 10° NNW 09:45:29 11° N 09:46:59 10° N visible
01 Jun ? 05:44:58 10° SSW 05:50:22 90° NW 05:55:42 10° NNE visible
01 Jun ? 07:30:04 10° W 07:34:23 24° NW 07:38:41 10° NNE visible
01 Jun ? 09:17:56 10° NNW 09:19:44 12° N 09:21:31 10° N visible
02 Jun ? 05:19:35 10° SSW 05:24:57 75° ESE 05:30:15 10° NE visible
02 Jun ? 07:04:14 10° W 07:08:48 28° NW 07:13:19 10° NNE visible
02 Jun ? 08:51:52 10° NW 08:53:59 12° NNW 08:56:07 10° N visible
03 Jun ? 04:54:16 10° SSW 04:59:33 61° ESE 05:04:46 10° NE visible
03 Jun ? 06:38:26 10° WSW 06:43:12 32° NW 06:47:57 10° NNE visible
03 Jun ? 08:25:48 10° NW 08:28:15 13° NNW 08:30:42 10° N visible
03 Jun ? 10:12:21 10° N 10:14:05 11° N 10:15:49 10° NNE visible
04 Jun ? 04:29:01 10° S 04:34:10 50° ESE 04:39:16 10° NE visible
04 Jun ? 06:12:41 10° WSW 06:17:38 37° NW 06:22:33 10° NNE visible
04 Jun ? 07:59:43 10° NW 08:02:31 14° NNW 08:05:19 10° N visible
04 Jun ? 09:46:52 10° N 09:48:19 11° N 09:49:46 10° NNE visible
